Park Rapids, MN

8:26 AM CST on February 24, 2018 (GMT -0600)
Park Rapids Municipal

Weather History for KPKD - September, 2011

Change the Weather History Date:

Thursday, September 8, 2011

  Actual Average Record
Temperature  
Mean Temperature 65 °F -  
Max Temperature 82 °F 73 °F 90 °F (1978)
Min Temperature 48 °F 48 °F 32 °F (1956)
Growing Degree Days 15 (Base 50)    
Moisture  
Dew Point 52 °F    
Average Humidity 70    
Maximum Humidity 100    
Minimum Humidity 33    
Precipitation  
Precipitation 0.00 in - - ()
Sea Level Pressure  
Sea Level Pressure 30.29 in    
Wind  
Wind Speed 2 mph (NNW)    
Max Wind Speed 12 mph    
Max Gust Speed -    
Visibility 9 miles    
Events      
Averages and records for this station are not official NWS values.
T = Trace of Precipitation, MM = Missing Value Source: NWS Daily Summary

Daily Weather History Graph

Daily Weather History Graph

Search for Another Location

Airport or City:

Trip Planner

Search our weather history database for the weather conditions in past years. The results will help you decide how hot, cold, wet, or windy it might be!

Date:

Astronomy

Sep. 08, 2011 Rise Set
Actual Time 6:48 AM CDT 7:46 PM CDT
Civil Twilight 6:17 AM CDT 8:17 PM CDT
Nautical Twilight 5:40 AM CDT 8:54 PM CDT
Astronomical Twilight 5:01 AM CDT 9:33 PM CDT
Moon 5:50 PM CDT (9/8) 2:55 AM CDT (9/8)
Length of Visible Light 13h 59m
Length of Day
12h 57m
Waxing Gibbous, 87% of the Moon is Illuminated
Sep 8
Waxing Gibbous
Sep 12
Full
Sep 20
Last Quarter
Sep 27
New
Oct 3
First Quarter

Hourly Weather History & Observations

Time (CDT) Temp. Heat Index Dew Point Humidity Pressure Visibility Wind Dir Wind Speed Gust Speed Precip Events Conditions
12:53 AM 55.0 °F - 52.0 °F 89% 30.32 in 10.0 mi Calm Calm - N/A   Clear
1:53 AM 52.0 °F - 50.0 °F 93% 30.33 in 10.0 mi Calm Calm - N/A   Clear
2:53 AM 50.0 °F - 48.0 °F 93% 30.33 in 10.0 mi Calm Calm - N/A   Clear
3:53 AM 50.0 °F - 48.0 °F 93% 30.33 in 10.0 mi Calm Calm - N/A   Clear
4:23 AM 50.0 °F - 50.0 °F 100% 30.33 in 1.5 mi Calm Calm - N/A   Clear
4:32 AM 50.0 °F - 48.2 °F 94% 30.33 in 4.0 mi Calm Calm - N/A   Clear
4:53 AM 48.9 °F - 48.0 °F 97% 30.33 in 9.0 mi West 3.5 mph - N/A   Clear
5:53 AM 48.9 °F - 46.9 °F 93% 30.33 in 3.0 mi Calm Calm - N/A   Clear
6:53 AM 48.2 °F - 46.4 °F 93% 30.34 in 9.0 mi Calm Calm - N/A   Clear
7:53 AM 53.6 °F - 51.8 °F 94% 30.34 in 10.0 mi Calm Calm - N/A   Clear
8:53 AM 63.0 °F - 57.0 °F 81% 30.34 in 10.0 mi Calm Calm - N/A   Clear
9:53 AM 73.0 °F - 55.9 °F 55% 30.33 in 10.0 mi North 4.6 mph - N/A   Clear
10:53 AM 75.9 °F - 55.9 °F 50% 30.34 in 10.0 mi North 6.9 mph - N/A   Clear
11:53 AM 77.0 °F - 53.1 °F 43% 30.33 in 10.0 mi NNW 4.6 mph - N/A   Clear
12:53 PM 80.1 °F 79.9 °F 53.1 °F 39% 30.31 in 10.0 mi North 6.9 mph - N/A   Scattered Clouds
1:53 PM 80.1 °F - 52.0 °F 38% 30.29 in 10.0 mi North 8.1 mph - N/A   Scattered Clouds
2:53 PM 81.0 °F - 51.1 °F 35% 30.28 in 10.0 mi Calm Calm - N/A   Partly Cloudy
3:53 PM 81.0 °F - 50.0 °F 34% 30.25 in 10.0 mi North 11.5 mph - N/A   Partly Cloudy
4:53 PM 82.0 °F - 50.0 °F 33% 30.23 in 10.0 mi NNW 8.1 mph - N/A   Partly Cloudy
5:53 PM 81.0 °F 80.4 °F 53.1 °F 38% 30.22 in 10.0 mi NNE 6.9 mph - N/A   Clear
6:53 PM 79.0 °F - 53.1 °F 40% 30.21 in 10.0 mi NNW 6.9 mph - N/A   Clear
7:53 PM 71.1 °F - 55.0 °F 57% 30.20 in 10.0 mi NNW 3.5 mph - N/A   Clear
8:53 PM 64.9 °F - 55.0 °F 70% 30.22 in 10.0 mi NW 3.5 mph - N/A   Clear
9:53 PM 60.1 °F - 55.0 °F 83% 30.21 in 10.0 mi Calm Calm - N/A   Clear
10:53 PM 57.0 °F - 54.0 °F 89% 30.21 in 10.0 mi West 3.5 mph - N/A   Clear
11:53 PM 55.4 °F - 53.6 °F 94% 30.20 in 10.0 mi Calm Calm - N/A   Clear